Location: Misciano
(43.5000°N, 11.9500°E)
Time: 05:20:02
(UTC+00:00)

USA 234 - Pass Details

Date: 13 August 2020
Orbit: 1100 x 1108 km, 123.0° (Epoch: 17 September)

Event Time Altitude Azimuth Distance (km) Brightness Sun altitude
Exits shadow 20:10:45 17° 91° (E) 2,453 4.7 -18.2°
Maximum altitude 20:15:27 45° 26° (NNE) 1,457 4.0 -18.9°
Drops below altitude 10° 20:21:36 10° 316° (NW) 2,969 6.8 -19.7°
Sets 20:24:11 0° 311° (NW) 3,930 7.8 -20.0°
